Location: Hartman Creek State Park
(44.3257°N, 89.2134°W)
Time: 14:13:55
(UTC-05:00)

Cosmos 2263 Rocket - Visible Passes

Search period start: 30 July 2014 00:00
Search period end: 09 August 2014 00:00
Orbit: 824 x 849 km, 71.0° (Epoch: 30 July)

Date Brightness Start Highest point End Pass type
(mag) Time Alt. Az. Time Alt. Az. Time Alt. Az.
30 Jul 2.4 01:48:33 56° ESE 01:48:50 56° ESE 01:54:23 10° NNE visible
30 Jul 3.7 03:30:15 18° W 03:33:08 26° NW 03:37:50 10° N visible
31 Jul 2.5 01:32:17 52° ESE 01:32:17 52° ESE 01:37:44 10° NE visible
31 Jul 3.6 03:13:59 20° W 03:16:28 28° NW 03:21:17 10° N visible
01 Aug 2.7 01:15:59 47° E 01:15:59 47° E 01:21:05 10° NE visible
01 Aug 3.5 02:57:41 23° W 02:59:49 29° NW 03:04:44 10° N visible
02 Aug 2.9 00:59:40 43° E 00:59:40 43° E 01:04:25 10° NE visible
02 Aug 3.4 02:41:21 26° W 02:43:09 31° NW 02:48:10 10° N visible
03 Aug 3.0 00:43:19 39° E 00:43:19 39° E 00:47:46 10° NE visible
03 Aug 3.3 02:25:00 29° W 02:26:30 34° NW 02:31:37 10° N visible
04 Aug 3.2 00:26:56 35° E 00:26:56 35° E 00:31:05 10° NE visible
04 Aug 3.2 02:08:38 32° W 02:09:51 36° NW 02:15:03 10° N visible
05 Aug 3.3 00:10:32 32° E 00:10:32 32° E 00:14:25 10° NE visible
05 Aug 3.1 01:52:13 36° W 01:53:12 38° NW 01:58:29 10° NNE visible
05 Aug 3.4 23:54:05 29° ENE 23:54:05 29° ENE 23:57:43 10° NE visible
06 Aug 3.0 01:35:46 39° WNW 01:36:34 41° WNW 01:41:54 10° NNE visible
06 Aug 3.5 23:37:37 26° ENE 23:37:37 26° ENE 23:41:02 10° NE visible
07 Aug 2.9 01:19:18 42° WNW 01:19:55 44° WNW 01:25:20 10° NNE visible
07 Aug 3.6 23:21:06 24° ENE 23:21:06 24° ENE 23:24:19 10° NE visible
08 Aug 2.8 01:02:47 46° WNW 01:03:17 47° WNW 01:08:45 10° NNE visible
08 Aug 4.8 02:47:55 10° NW 02:48:44 10° NW 02:49:32 10° NNW visible
08 Aug 3.6 23:04:33 23° ENE 23:04:33 23° ENE 23:07:36 10° NE visible
